User: anonymous   Login
Location: Unspecified
(0.0000°N, 0.0000°E)
Time: 03:59:19
(UTC+00:00)
Language:

VELOX 1 - Orbit

View from above orbital plane
View from above orbital plane
View from above satellite
View from above satellite

Ground track
Ground track

The orbit data is extracted from the following two-line orbital elements,

1 40057U 14034E   18110.80897952  .00000346  00000-0  56174-4 0  9997
2 40057  98.1965 220.8855 0011852 146.1319 214.0652 14.77391097205171
Epoch (UTC): 20 April 2018 19:24:55
Eccentricity: 0.0011852
inclination: 98.1965°
perigee height: 629 km
apogee height: 646 km
right ascension of ascending node: 220.8855°
argument of perigee: 146.1319°
revolutions per day: 14.77391097
mean anomaly at epoch: 214.0652°
orbit number at epoch: 20517

The dashed part of the orbit path shows where the satellite is in the earth's shadow,  

DLR